Regional Weather Roundup
Issued by NWS Mt. Holly, NJ

Home | Current Version | Previous Version | Text Only | Print | Product List | Glossary On
Versions: 1 2 3 4 5 6 7 8 9 10 11 12 13 14 15 16 17 18 19 20 21 22 23 24 25 26 27 28
000
ASUS41 KPHI 240612
RWRPHI

REGIONAL WEATHER ROUNDUP
NATIONAL WEATHER SERVICE MOUNT HOLLY NJ
100 AM EST FRI FEB 24 2017

NOTE:  "FAIR" INDICATES FEW OR NO CLOUDS BELOW 12,000 FEET WITH NO
SIGNIFICANT WEATHER AND/OR OBSTRUCTIONS TO VISIBILITY.

 * = STATION DOES NOT REPORT PRECIPITATION (E.G. RAIN, SNOW, ETC.)
        OR FOG.

NJZ015>026-240700-
SOUTHERN NEW JERSEY

CITY           SKY/WX    TMP DP  RH WIND       PRES   REMARKS
POMONA         CLEAR     55  49  80 S10       29.94R
6HR MIN TEMP:  55; 6HR MAX TEMP:  58;

WILDWOOD*      CLEAR     53  50  89 S7        29.95S
MILLVILLE      CLEAR     52  51  97 CALM      29.94R
WRIGHTSTOWN    CLEAR     55  50  85 SW6       29.90R
MOUNT HOLLY    CLEAR     55  50  83 S3        29.92R
TRENTON        CLEAR     56  50  80 SW5       29.91S
6HR MIN TEMP:  55; 6HR MAX TEMP:  64;


$$
NJZ001>014-240700-
NORTHERN NEW JERSEY

CITY           SKY/WX    TMP DP  RH WIND       PRES   REMARKS
SUSSEX         CLOUDY    51  49  92 CALM      29.89F
ANDOVER*         N/A     49  46  90 CALM      29.89F
MORRISTOWN     PTCLDY    46  46 100 CALM      29.90S
NEWARK         CLOUDY    57  50  77 SW7       29.90S
TETERBORO      CLOUDY    55  50  83 CALM      29.89S
CALDWELL       MOCLDY    53  49  86 CALM      29.90S
SOMERVILLE     PTCLDY    47  44  90 CALM      29.89S
ALLAIRE*       CLEAR     58  51  78 SW8       29.93R
TOMS RIVER*    CLEAR     57  51  80 S8        29.93S

$$
PAZ043-044-047-054-055-060>062-066>071-240700-
EASTERN PENNSYLVANIA

CITY           SKY/WX    TMP DP  RH WIND       PRES   REMARKS
PHILADELPHIA   PTCLDY    56  50  80 S7        29.92S
6HR MIN TEMP:  56; 6HR MAX TEMP:  66;

NORTH PHILA    CLEAR     58  51  78 S3        29.93R
BLUE BELL*     CLEAR     50  48  93 CALM      29.90S
DOYLESTOWN     PTCLDY    56  51  84 S5        29.90S
QUAKERTOWN*    CLEAR     57  50  77 SW6       29.90F
PERKASIE*      FAIR      55  52  88 CALM      29.91S
POTTSTOWN      MOCLDY    58  51  78 CALM      29.91S
LANCASTER      CLOUDY    55  52  89 NE3       29.88S
COATESVILLE    PTCLDY    55  52  88 CALM      29.92S
READING        CLOUDY    61  53  75 SW6       29.88S
6HR MIN TEMP:  59; 6HR MAX TEMP:  66;

ALLENTOWN      CLOUDY    57  49  74 S3        29.88F
6HR MIN TEMP:  54; 6HR MAX TEMP:  69;

MOUNT POCONO   CLOUDY    51  51 100 CALM      29.89F
6HR MIN TEMP:  50; 6HR MAX TEMP:  58; 6HR PCP:  0.07;

HAZLETON       MOCLDY    54  52  94 SE3       29.91S
LEHIGHTON      FAIR      48  48 100 CALM      29.89S FOG
WILKES BARRE   MOCLDY    54  53  97 CALM      29.86S

$$
DEZALL-MDZ008-012-015-019-020-240700-
DELAWARE AND EASTERN MARYLAND

CITY           SKY/WX    TMP DP  RH WIND       PRES   REMARKS
WILMINGTON     CLEAR     51  49  92 S7        29.92S
6HR MIN TEMP:  51; 6HR MAX TEMP:  64;

DOVER          CLEAR     57  57 100 S9        29.92R
GEORGETOWN     CLEAR     55  51  86 S6        29.94S
6HR MIN TEMP:  55; 6HR MAX TEMP:  63;

EASTON         CLEAR     58  52  80 S7        29.96S
ABERDEEN       CLEAR     47  46  98 CALM      29.92S
PATUXENT       CLEAR     59  54  83 S6        29.92S
OCEAN CITY     CLEAR     51  49  92 SW7       29.95F
WALLOPS ISLAND CLEAR     51  50  96 S12       29.95F
CAMBRIDGE      CLEAR     55  52  88 S7        29.94R
SALISBURY      CLEAR     54  51  90 S3        29.94S

$$
PAZ001-021-NYZ056-072-MDZ011-DCZ001-240700-
OTHER NEARBY LOCATIONS

CITY           SKY/WX    TMP DP  RH WIND       PRES   REMARKS
HARRISBURG     PTCLDY    56  50  80 E6        29.86R
STATE COLLEGE  MOCLDY    56  51  82 W3        29.85F
WILLIAMSPORT   CLOUDY    51  48  89 CALM      29.85S
BINGHAMTON     PTCLDY    50  47  89 NE6       29.86F
NEW YORK CITY  MOCLDY    62  50  64 SW9       29.92S
BALTIMORE      PTCLDY    51  48  89 E5        29.90R
WASHINGTON DC  CLEAR     61  52  72 S12       29.90S

$$




USA.gov is the U.S. government's official web portal to all federal, state and local government web resources and services.